Eugene, OR

2:34 AM PST on November 25, 2017 (GMT -0800)
Mahlon Sweet

Weather History for KEUG - June, 2013

Change the Weather History Date:

Thursday, June 20, 2013

  Actual Average Record
Temperature  
Mean Temperature 59 °F 61 °F  
Max Temperature 68 °F 74 °F 96 °F (1970)
Min Temperature 50 °F 48 °F 38 °F (1997)
Degree Days  
Heating Degree Days 6 5  
Month to date heating degree days 80 122  
Since 1 June heating degree days 80 122  
Since 1 July heating degree days 4341 4771  
Cooling Degree Days 0 1  
Month to date cooling degree days 8 5  
Year to date cooling degree days 13 10  
Since 1 June cooling degree days 8 5  
Growing Degree Days 10 (Base 50)    
Moisture  
Dew Point 50 °F    
Average Humidity 81    
Maximum Humidity 89    
Minimum Humidity 72    
Precipitation  
Precipitation 0.07 in 0.04 in 0.86 in (1937)
Month to date precipitation 0.26 1.20  
Year to date precipitation 8.83 24.56  
Snow  
Snow 0.00 in - - ()
Month to date snowfall 0.0  
Since 1 June snowfall 0.0  
Since 1 July snowfall 0.0  
Snow Depth 0.00 in    
Sea Level Pressure  
Sea Level Pressure 30.12 in    
Wind  
Wind Speed 5 mph (SSW)    
Max Wind Speed 13 mph    
Max Gust Speed 15 mph    
Visibility 10 miles    
Events Rain    
T = Trace of Precipitation, MM = Missing Value Source: NWS Daily Summary

Daily Weather History Graph

Daily Weather History Graph

Search for Another Location

Airport or City:

Trip Planner

Search our weather history database for the weather conditions in past years. The results will help you decide how hot, cold, wet, or windy it might be!

Date:

Astronomy

Jun. 20, 2013 Rise Set
Actual Time 5:29 AM PDT 8:59 PM PDT
Civil Twilight 4:52 AM PDT 9:36 PM PDT
Nautical Twilight 4:04 AM PDT 10:24 PM PDT
Astronomical Twilight 3:03 AM PDT 11:25 PM PDT
Moon 6:04 PM PDT (6/20) 3:05 AM PDT (6/20)
Length of Visible Light 16h 43m
Length of Day
15h 30m
Waxing Gibbous, 89% of the Moon is Illuminated
Jun 20
Waxing Gibbous
Jun 23
Full
Jun 29
Last Quarter
Jul 8
New
Jul 15
First Quarter

Hourly Weather History & Observations

Time (PDT) Temp. Dew Point Humidity Pressure Visibility Wind Dir Wind Speed Gust Speed Precip Events Conditions
12:38 AM 55.4 °F 46.4 °F 72% 30.14 in 10.0 mi SSW 3.5 mph - N/A   Overcast
12:54 AM 55.0 °F 46.9 °F 74% 30.14 in 10.0 mi South 5.8 mph - N/A   Overcast
1:05 AM 53.6 °F 46.4 °F 77% 30.14 in 10.0 mi SSW 4.6 mph - N/A   Overcast
1:54 AM 52.0 °F 46.9 °F 83% 30.13 in 10.0 mi South 5.8 mph - N/A   Overcast
2:54 AM 50.0 °F 46.0 °F 86% 30.12 in 10.0 mi SSW 5.8 mph - N/A   Scattered Clouds
3:07 AM 51.8 °F 46.4 °F 82% 30.12 in 10.0 mi SSW 4.6 mph - N/A   Mostly Cloudy
3:23 AM 51.8 °F 48.2 °F 88% 30.12 in 10.0 mi South 5.8 mph - N/A   Overcast
3:54 AM 52.0 °F 48.0 °F 86% 30.12 in 10.0 mi South 5.8 mph - N/A   Overcast
4:54 AM 52.0 °F 48.0 °F 86% 30.11 in 10.0 mi South 6.9 mph - N/A   Overcast
5:54 AM 53.1 °F 48.9 °F 86% 30.11 in 10.0 mi South 5.8 mph - N/A   Overcast
6:40 AM 53.6 °F 48.2 °F 82% 30.11 in 10.0 mi South 5.8 mph - N/A   Overcast
6:54 AM 54.0 °F 48.9 °F 83% 30.11 in 10.0 mi South 5.8 mph - N/A   Overcast
7:41 AM 55.4 °F 48.2 °F 77% 30.11 in 10.0 mi South 3.5 mph - N/A   Overcast
7:54 AM 55.0 °F 48.9 °F 80% 30.11 in 10.0 mi South 4.6 mph - N/A   Overcast
8:54 AM 57.0 °F 48.9 °F 74% 30.11 in 10.0 mi South 4.6 mph - N/A   Overcast
9:42 AM 57.2 °F 50.0 °F 77% 30.11 in 10.0 mi South 3.5 mph - 0.00 in   Mostly Cloudy
9:54 AM 60.1 °F 51.1 °F 72% 30.11 in 10.0 mi Variable 3.5 mph - 0.00 in   Mostly Cloudy
10:54 AM 57.0 °F 52.0 °F 83% 30.11 in 9.0 mi West 6.9 mph - 0.00 in Rain Light Rain
11:08 AM 57.2 °F 51.8 °F 82% 30.10 in 9.0 mi WSW 4.6 mph - 0.01 in Rain Light Rain
11:54 AM 59.0 °F 52.0 °F 78% 30.11 in 10.0 mi West 6.9 mph - 0.01 in Rain Light Rain
12:54 PM 60.1 °F 52.0 °F 75% 30.11 in 10.0 mi SSW 5.8 mph - 0.01 in Rain Light Rain
1:54 PM 68.0 °F 48.0 °F 49% 30.10 in 10.0 mi SW 8.1 mph - 0.00 in   Mostly Cloudy
2:54 PM 64.0 °F 52.0 °F 65% 30.09 in 10.0 mi WSW 6.9 mph - 0.00 in Rain Light Rain
3:54 PM 66.9 °F 48.9 °F 52% 30.10 in 10.0 mi NW 9.2 mph - 0.00 in   Mostly Cloudy
4:54 PM 62.1 °F 52.0 °F 70% 30.12 in 10.0 mi West 3.5 mph - 0.00 in Rain Light Rain
5:54 PM 61.0 °F 55.0 °F 81% 30.11 in 10.0 mi East 4.6 mph - 0.04 in Rain Light Rain
6:54 PM 63.0 °F 54.0 °F 72% 30.11 in 10.0 mi ESE 3.5 mph - 0.01 in   Mostly Cloudy
7:54 PM 61.0 °F 53.1 °F 75% 30.12 in 10.0 mi Calm Calm - N/A   Mostly Cloudy
8:54 PM 62.1 °F 54.0 °F 75% 30.12 in 10.0 mi West 6.9 mph - N/A   Mostly Cloudy
9:54 PM 59.0 °F 50.0 °F 72% 30.14 in 10.0 mi NW 4.6 mph - N/A   Mostly Cloudy
10:54 PM 57.9 °F 51.1 °F 78% 30.15 in 10.0 mi Calm Calm - N/A   Mostly Cloudy
11:54 PM 55.9 °F 50.0 °F 80% 30.15 in 10.0 mi NNW 3.5 mph - N/A   Overcast